Home   Weather   Bissau   Past weeks

Flag for Guinea-Bissau Past Weather in Bissau, Guinea-Bissau — Yesterday and Last 2 Weeks

Now
88 °F

Clear.


Feels Like: 85 °F
Forecast: N/A
Wind: 3 mph from North

Location: Bissau Aeroport

Current Time: Jan 21, 2017 at 7:43:27 pm

Latest Report: Jan 21, 2017 at 7:00 pm


Visibility: 10 mi

Pressure: 29.80 "Hg

Humidity: 29%

Dew Point: 52 °F

Location of BissauLocation

Past Weather in Bissau — Graph

°F

Bissau Temperature Yesterday

Maximum temperature yesterday: 95 °F (at 4:00 pm)
Minimum temperature yesterday: 68 °F (at 7:00 am)
Average temperature yesterday: 81 °F

High & Low Weather Summary for the Past Weeks

 TemperatureHumidityPressure
High95 °F (Jan 7, 4:00 pm)94% (Jan 18, 5:00 am)29.92 "Hg (Jan 18, 5:00 am)
Low64 °F (Jan 7, 6:00 am)11% (Jan 12, 2:00 pm)29.74 "Hg (Jan 7, 5:00 pm)
Average79 °F43%29.83 "Hg
* Reported Jan 6 6:00 pm — Jan 21 6:00 pm, Bissau, Weather by CustomWeather, © 2017

Note: Actual official high and low records may vary slightly from our data, if they occured in-between our weather recording intervals... More about our weather records

Advertising

Bissau Weather History for the Previous 24 Hours

Scroll right to see more
 ConditionsComfort  
Time TempWeatherWind HumidityBarometerVisibility
6:00 pm
Sat, Jan 21
91 °FSunny.10 mph18%29.77 "Hg10 mi
5:00 pm93 °FSunny.10 mph17%29.80 "Hg10 mi
4:00 pm93 °FSunny.9 mph17%29.77 "Hg10 mi
3:00 pm91 °FHot.12 mph20%29.80 "HgN/A
2:00 pm91 °FPassing clouds.10 mph18%29.83 "HgN/A
1:00 pm90 °FSunny.14 mph17%29.86 "Hg10 mi
12:00 pm84 °FPassing clouds.10 mph22%29.86 "HgN/A
11:00 am81 °FPassing clouds.15 mph23%29.89 "HgN/A
10:00 am75 °FSunny.10 mph27%29.89 "Hg10 mi
9:00 am72 °FSunny.9 mph33%29.89 "Hg10 mi
8:00 am68 °FSunny.8 mph43%29.89 "Hg10 mi
7:00 am68 °FClear.7 mph40%29.86 "Hg10 mi
6:00 am68 °FClear.9 mph43%29.86 "Hg10 mi
3:00 am73 °FClear.6 mph41%29.86 "Hg10 mi
2:00 am79 °FClear.9 mph39%29.86 "Hg10 mi
1:00 am75 °FClear.7 mph54%29.86 "Hg10 mi
11:00 pm
Fri, Jan 20
77 °FClear.7 mph47%29.86 "Hg10 mi
9:00 pm82 °FClear.3 mph42%29.83 "Hg10 mi
8:00 pm82 °FClear.5 mph45%29.83 "Hg10 mi
7:00 pm88 °FPassing clouds.5 mph29%29.77 "HgN/A
Weather by CustomWeather, © 2017

See weather overviewHow to use our weather pages